Weather History for Bishop, CA

Change the Weather History Date:

Tuesday, June 25, 2013

  Actual Average Record
Temperature  
Mean Temperature 73 °F 74 °F  
Max Temperature 94 °F 95 °F 107 °F (2006)
Min Temperature 51 °F 53 °F 41 °F (1975)
Degree Days  
Heating Degree Days 0 0  
Month to date heating degree days 0 17  
Since 1 June heating degree days 0 17  
Since 1 July heating degree days 3851 4175  
Cooling Degree Days 8 9  
Month to date cooling degree days 239 163  
Year to date cooling degree days 325 231  
Since 1 June cooling degree days 239 163  
Growing Degree Days 22 (Base 50)    
Moisture  
Dew Point 40 °F    
Average Humidity 39    
Maximum Humidity 63    
Minimum Humidity 14    
Precipitation  
Precipitation 0.00 in 0.00 in 0.15 in (1948)
Month to date precipitation T 0.16  
Year to date precipitation 0.47 3.04  
Snow  
Snow 0.00 in 0.00 in - ()
Month to date snowfall 0.0 0.0  
Since 1 June snowfall 0.0 0.0  
Since 1 July snowfall 2.8 6.8  
Snow Depth 0.00 in    
Sea Level Pressure  
Sea Level Pressure 29.80 in    
Wind  
Wind Speed 5 mph (NNW)    
Max Wind Speed 21 mph    
Max Gust Speed 25 mph    
Visibility 10 miles    
Events      
T = Trace of Precipitation, MM = Missing Value Source: NWS Daily Summary

Daily Weather History Graph

Daily Weather History Graph

Search for Another Location

Airport:

Trip Planner

Search our weather history database for the weather conditions in past years. The results will help you decide how hot, cold, wet, or windy it might be!

Date:

Astronomy

Jun. 25, 2013 Rise Set
Actual Time 5:34 AM PDT 8:18 PM PDT
Civil Twilight 5:03 AM PDT 8:49 PM PDT
Nautical Twilight 4:24 AM PDT 9:27 PM PDT
Astronomical Twilight 3:40 AM PDT 10:11 PM PDT
Moon 10:11 PM PDT (6/25) 8:16 AM PDT (6/25)
Length of Visible Light 15h 46m
Length of Day
14h 43m
Waning Gibbous, 92% of the Moon is Illuminated
Jun 25
Waning Gibbous
Jun 29
Last Quarter
Jul 8
New
Jul 15
First Quarter
Jul 22
Full

Hourly Weather History & Observations

Time (PDT) Temp. Dew Point Humidity Pressure Visibility Wind Dir Wind Speed Gust Speed Precip Events Conditions
12:56 AM 63.0 °F 42.1 °F 46% 29.77 in 10.0 mi Variable 4.6 mph - N/A   Clear
1:56 AM 61.0 °F 42.1 °F 50% 29.78 in 10.0 mi NNE 3.5 mph - N/A   Clear
2:56 AM 55.0 °F 39.9 °F 57% 29.80 in 10.0 mi Calm Calm - N/A   Clear
3:56 AM 60.1 °F 42.1 °F 51% 29.79 in 10.0 mi West 6.9 mph - N/A   Clear
4:56 AM 55.9 °F 41.0 °F 57% 29.80 in 10.0 mi Calm Calm - N/A   Clear
5:56 AM 52.0 °F 39.9 °F 63% 29.83 in 10.0 mi Calm Calm - N/A   Clear
6:56 AM 62.1 °F 43.0 °F 50% 29.82 in 10.0 mi Calm Calm - N/A   Clear
7:56 AM 66.9 °F 43.0 °F 42% 29.83 in 10.0 mi Calm Calm - N/A   Clear
8:56 AM 73.9 °F 43.0 °F 33% 29.84 in 10.0 mi Calm Calm - N/A   Clear
9:56 AM 79.0 °F 39.9 °F 25% 29.83 in 10.0 mi NNE 4.6 mph - N/A   Clear
10:56 AM 82.0 °F 37.9 °F 21% 29.83 in 10.0 mi ESE 6.9 mph - N/A   Clear
11:56 AM 84.9 °F 37.0 °F 18% 29.81 in 10.0 mi Variable 3.5 mph - N/A   Clear
12:56 PM 88.0 °F 37.0 °F 16% 29.80 in 10.0 mi SSE 8.1 mph - N/A   Clear
1:56 PM 89.1 °F 36.0 °F 15% 29.79 in 10.0 mi ESE 3.5 mph - N/A   Clear
2:56 PM 91.9 °F 37.0 °F 15% 29.77 in 10.0 mi SE 6.9 mph - N/A   Scattered Clouds
3:56 PM 93.0 °F 37.0 °F 14% 29.74 in 10.0 mi NNW 6.9 mph - N/A   Mostly Cloudy
4:56 PM 93.0 °F 37.0 °F 14% 29.74 in 10.0 mi SW 3.5 mph - N/A   Scattered Clouds
5:56 PM 93.0 °F 37.9 °F 15% 29.74 in 10.0 mi Variable 5.8 mph - N/A   Scattered Clouds
6:56 PM 91.0 °F 37.9 °F 15% 29.74 in 10.0 mi Variable 3.5 mph - N/A   Clear
7:56 PM 86.0 °F 37.0 °F 18% 29.75 in 10.0 mi WNW 9.2 mph - N/A   Clear
8:56 PM 79.0 °F 42.1 °F 27% 29.79 in 10.0 mi North 12.7 mph - N/A   Clear
9:56 PM 73.9 °F 43.0 °F 33% 29.83 in 10.0 mi North 9.2 mph - N/A   Clear
10:56 PM 72.0 °F 43.0 °F 35% 29.85 in 10.0 mi WNW 5.8 mph - N/A   Clear
11:56 PM 69.1 °F 44.1 °F 40% 29.86 in 10.0 mi NNW 4.6 mph - N/A   Clear